Ana Sayfa
METAR-TAF:

METAR-TAF

Havaalanları :

Lake Argyle, Avustralya

Enlem: 16-38-13S, Boylam: 128-27-05E, yükseklik: 159 m

Güncel hava durumu gözlemi

Rapor saat 03:00 UTC de 34 dakika önce yapıldı.
Rüzgar doğudan 5 kt, kuzeydoğu ve güneydoğu arasında değişken
Sıcaklık 26°C
Nem 17%
Basınç 1017 hPa
Görüş mesafesi 10 km veya daha fazla

METAR: YARG 180300Z AUTO 10005KT 050V130 9999 // NCD 26/M01 Q1017

Saat: 11:34 (03:34 UTC)


TAF: eksik

4.000'den fazla havaalanı için hava durumu gözlemleri ve tahminleri (METAR ve TAF raporları).

Kullanılabilir istasyonlar harita üzerinde sarı ve kırmızı noktalarla gösterilir.

İstasyonun adını görmek için fareyi noktanın üzerinde gezdirin.

Sonrasında hava gözlem ve tahminlerini görmek için tıklayın.

Haritayı değiştirmek için: yaklaştırmak için siyah artı işaretli yeşil düğmeye ve uzaklaştırmak için de eksi işaretli düğmeye hızla tıklayın; bitişik haritalar için yeşil okları kullanın.


METAR-TAF: